Tracking 19193 objects as of 22-Jun-2018
HD Live streaming from Space Station
objects crossing your sky now

YAMAL 202

Track YAMAL 202 now!
YAMAL 202 is classified as:


NORAD ID: 28089
Int'l Code: 2003-053A
Perigee: 35,777.8 km
Apogee: 35,809.3 km
Inclination: 0.1 °
Period: 1,436.1 minutes
Semi major axis: 42164 km
RCS: 0.003 m2 (small)
Launch date: November 24, 2003
Source: Commonwealth of Independent States (former USSR) (CIS)
Launch site: TYURATAM MISSILE AND SPACE COMPLEX (TTMTR)

18 C-band; provide communications for gas corporation operations throughout Eurasian continent.
aabbcc
Your satellite tracking list
Your tracking list is empty




NASA's NSSDC Master Catalog

Two Line Element Set (TLE):
1 28089U 03053A   18172.86377155 +.00000106 +00000-0 +00000-0 0  9996
2 28089 000.0524 092.9553 0003735 327.5297 209.4577 01.00272345053428
Source of the keplerian elements: AFSPC